Location: *
(58.7167°N, 26.1833°E)
Time: 23:20:04
(UTC+00:00)

UNK - Pass Details

Date: 25 August 2019
Orbit: 667 x 687 km, 98.1° (Epoch: 21 September)

Event Time Altitude Azimuth Distance (km) Brightness Sun altitude
Exits shadow 23:15:16 26° 141° (SE) 1,340 4.9 -19.7°
Maximum altitude 23:17:48 64° 67° (ENE) 767 4.1 -19.6°
Drops below altitude 10° 23:22:28 10° 348° (NNW) 2,152 7.2 -19.4°
Sets 23:24:44 0° 345° (NNW) 3,072 8.1 -19.4°
